Location: Unspecified
(0.0000°N, 0.0000°E)
Time: 00:35:15
(UTC+00:00)

Explorer 11/Cluster Stage 4 - All Passes

Search period start: 13 December 2018 00:00
Search period end: 23 December 2018 00:00
Orbit: 467 x 1260 km, 28.8° (Epoch: 11 December)

Date Brightness Start Highest point End Pass type
(mag) Time Alt. Az. Time Alt. Az. Time Alt. Az.
13 Dec - 00:17:53 10° WNW 00:21:33 19° NNW 00:24:46 10° NNE night (unlit)
13 Dec - 09:25:20 10° NW 09:29:52 40° NNE 09:35:30 10° ESE daylight
13 Dec - 11:13:13 10° W 11:18:37 47° SSW 11:25:20 10° SE daylight
13 Dec - 13:04:24 10° WSW 13:08:30 16° SSW 13:12:59 10° SSE daylight
13 Dec - 18:40:36 10° S 18:43:01 11° SSE 18:45:20 10° SE visible
13 Dec - 20:27:01 10° SSW 20:33:24 30° SSE 20:38:51 10° E visible
13 Dec - 22:15:55 10° WSW 22:22:41 80° NNW 22:28:00 10° NE visible
14 Dec - 00:07:49 10° WNW 00:11:07 16° NNW 00:14:03 10° N night (unlit)
14 Dec - 09:14:54 10° NW 09:19:23 49° NNE 09:25:00 10° ESE daylight
14 Dec - 11:03:09 10° W 11:08:11 37° SSW 11:14:24 10° SE daylight
14 Dec - 12:55:02 10° SW 12:58:09 13° SSW 13:01:29 10° S daylight
14 Dec - 18:28:55 10° S 18:32:39 14° SSE 18:36:14 10° SE visible
14 Dec - 20:15:59 10° SW 20:22:57 36° SSE 20:28:50 10° E visible
14 Dec - 22:05:14 10° WSW 22:12:10 66° NNW 22:17:39 10° NE visible
14 Dec - 23:57:53 10° WNW 00:00:41 14° NNW 00:03:13 10° N night (unlit)
15 Dec - 09:04:32 10° NW 09:08:55 61° NNE 09:14:27 10° ESE daylight
15 Dec - 10:53:09 10° W 10:57:47 30° SSW 11:03:24 10° SE daylight
15 Dec - 12:46:21 10° SSW 12:47:50 11° SSW 12:49:23 10° S daylight
15 Dec - 18:17:33 10° SSW 18:22:16 16° SSE 18:26:45 10° ESE visible
15 Dec - 20:05:01 10° SW 20:12:25 43° SSE 20:18:42 10° E visible
15 Dec - 21:54:36 10° WSW 22:01:36 55° NNW 22:07:13 10° NE visible
15 Dec - 23:48:09 10° NW 23:50:15 12° NNW 23:52:13 10° N night (unlit)
16 Dec - 07:08:57 10° N 07:10:19 11° NNE 07:11:46 10° NE daylight
16 Dec - 08:54:13 10° NW 08:58:29 78° NNE 09:03:52 10° ESE daylight
16 Dec - 10:43:18 10° WSW 10:47:25 24° SSW 10:52:19 10° SSE daylight
16 Dec - 18:06:21 10° SSW 18:11:49 19° SSE 18:17:02 10° ESE daylight
16 Dec - 19:54:05 10° SW 20:01:52 52° SSE 20:08:30 10° ENE visible
16 Dec - 21:44:01 10° WSW 21:51:02 46° NNW 21:56:44 10° NE visible
16 Dec - 23:38:57 10° NW 23:39:49 10° NNW 23:40:41 10° NNW night (unlit)
17 Dec - 06:57:51 10° N 06:59:58 14° NNE 07:02:12 10° ENE daylight
17 Dec - 08:43:58 10° WNW 08:48:06 81° SSW 08:53:14 10° ESE daylight
17 Dec - 10:33:35 10° WSW 10:37:06 19° SSW 10:41:08 10° SSE daylight
17 Dec - 17:55:15 10° SSW 18:01:20 22° SSE 18:07:09 10° ESE daylight
17 Dec - 19:43:14 10° SW 19:51:16 62° SSE 19:58:13 10° ENE visible
17 Dec - 21:33:30 10° W 21:40:26 40° NNW 21:46:13 10° NE visible
18 Dec - 06:47:01 10° NNW 06:49:35 18° NNE 06:52:20 10° ENE daylight
18 Dec - 08:33:46 10° WNW 08:37:43 60° SSW 08:42:35 10° SE daylight
18 Dec - 10:24:08 10° SW 10:26:48 14° SSW 10:29:47 10° SSE daylight
18 Dec - 17:44:13 10° SSW 17:50:48 26° SSE 17:57:10 10° E daylight
18 Dec - 19:32:25 10° SW 19:40:38 73° SSE 19:47:51 10° ENE visible
18 Dec - 21:23:02 10° W 21:29:50 34° NNW 21:35:38 10° NNE visible
19 Dec - 06:36:19 10° NNW 06:39:13 22° NNE 06:42:20 10° E daylight
19 Dec - 08:23:38 10° WNW 08:27:23 44° SSW 08:31:52 10° SE daylight
19 Dec - 10:15:20 10° SSW 10:16:33 11° SSW 10:17:48 10° S daylight
19 Dec - 15:48:20 10° S 15:49:47 10° SSE 15:51:15 10° SSE daylight
19 Dec - 17:33:16 10° SSW 17:40:14 30° SSE 17:47:03 10° E daylight
19 Dec - 19:21:39 10° WSW 19:29:59 85° SSE 19:37:25 10° ENE visible
19 Dec - 21:12:38 10° W 21:19:14 30° NNW 21:25:00 10° NNE visible
20 Dec - 06:25:42 10° NNW 06:28:52 29° NNE 06:32:14 10° E daylight
20 Dec - 08:13:36 10° W 08:17:04 32° SSW 08:21:06 10° SE daylight
20 Dec - 15:36:40 10° S 15:39:23 12° SSE 15:42:11 10° SE daylight
20 Dec - 17:22:23 10° SW 17:29:38 34° SSE 17:36:50 10° E daylight
20 Dec - 19:10:58 10° WSW 19:19:18 83° NNW 19:26:54 10° ENE visible
20 Dec - 21:02:18 10° W 21:08:39 26° NNW 21:14:18 10° NNE visible
21 Dec - 06:15:09 10° NW 06:18:32 38° NNE 06:22:03 10° E daylight
21 Dec - 08:03:40 10° W 08:06:47 24° SSW 08:10:15 10° SSE daylight
21 Dec - 15:25:25 10° S 15:28:58 14° SSE 15:32:38 10° SE daylight
21 Dec - 17:11:33 10° SW 17:19:00 40° SSE 17:26:32 10° E daylight
21 Dec - 19:00:19 10° WSW 19:08:37 72° NNW 19:16:20 10° NE visible
21 Dec - 20:52:04 10° WNW 20:58:05 23° NNW 21:03:33 10° NNE visible
22 Dec - 06:04:39 10° NW 06:08:12 54° NNE 06:11:49 10° ESE daylight
22 Dec - 07:53:52 10° WSW 07:56:29 18° SSW 07:59:19 10° SSE daylight
22 Dec - 15:14:22 10° S 15:18:30 15° SSE 15:22:51 10° ESE daylight
22 Dec - 17:00:47 10° SW 17:08:20 46° SSE 17:16:09 10° E daylight
22 Dec - 18:49:45 10° WSW 18:57:55 62° NNW 19:05:42 10° NE visible
22 Dec - 20:41:55 10° WNW 20:47:31 20° NNW 20:52:44 10° NNE visible
